Location: Eschertshofen
(49.3064°N, 11.5756°E)
Time: 12:34:43
(UTC+00:00)

Iridium 26 - Pass Details

Date: 02 October 2021
Orbit: 772 x 775 km, 86.4° (Epoch: 15 October)

Event Time Altitude Azimuth Distance (km) Brightness Sun altitude
Exits shadow 21:55:09 10° 300° (WNW) 2,323 8.4 -42.4°
Drops below altitude 10° 21:55:19 10° 302° (WNW) 2,328 8.5 -42.4°
Sets 22:00:35 0° 347° (NNW) 3,263 9.6 -42.7°
